カタログに戻る

STARLINK-34168

運用中通信VLEO
NORAD 64079·PAYLOAD·🇺🇸 United States

打ち上げ May 21, 2025 から Cape Canaveral Space Force Station

Loading…

次のパス (今後24時間)

TLE

最新Source: CelesTrak SupGP

元期: Sep 15, 2026, 02:12 UTC

1 64079C 25107R   26258.09215278 -.00024560  00000+0 -88969-3 0  2587
2 64079  43.0011 211.6082 0001195 265.9641 340.6014 15.27585504    17

AllMySatでSTARLINK-34168をリアルタイム追跡

Download on the App Store